Location: Maccacari
(45.1333°N, 11.1333°E)
Time: 08:41:29
(UTC+00:00)

Cosmos 1125 Rocket - Pass Details

Date: 18 September 2020
Orbit: 758 x 779 km, 74.0° (Epoch: 29 October)

Event Time Altitude Azimuth Distance (km) Brightness Sun altitude
Rises 18:56:17 0° 179° (S) 3,241 6.5 -17.4°
Reaches altitude 10° 18:58:45 10° 172° (S) 2,320 5.7 -17.8°
Maximum altitude 19:03:41 42° 103° (ESE) 1,107 3.8 -18.6°
Drops below altitude 10° 19:08:40 10° 34° (NE) 2,341 5.9 -19.4°
Sets 19:11:10 0° 28° (NNE) 3,273 6.7 -19.8°
